Regional Weather Roundup
Issued by NWS Burlington, VT

Home | Current Version | Previous Version | Text Only | Print | Product List | Glossary On
Versions: 1 2 3 4 5 6 7 8 9 10 11 12 13 14 15 16 17 18 19 20 21 22 23 24 25 26 27 28 29 30 31 32 33 34 35 36 37 38 39 40 41 42 43 44 45 46 47 48 49 50
000
ASUS41 KBTV 251210
RWRBTV
VERMONT REGIONAL WEATHER ROUNDUP
NATIONAL WEATHER SERVICE BURLINGTON VT
700 AM EST SUN JAN 25 2015

NOTE: "FAIR" INDICATES FEW OR NO CLOUDS BELOW 12,000 FEET WITH NO
SIGNIFICANT WEATHER AND/OR OBSTRUCTIONS TO VISIBILITY.

* THESE REPORTS ARE NOT UNDER NWS QUALITY CONTROL AND/OR DO NOT
  REPORT WEATHER SUCH AS PRECIPITATION AND FOG.

VTZ001>019-251300-
_____VERMONT_____


CITY           SKY/WX    TMP DP  RH WIND       PRES   REMARKS
BURLINGTON     PTSUNNY   20  12  71 NW15G24   29.57R WCI   6
6HR MIN TEMP:  20; 6HR MAX TEMP:  33; 6HR PCP: TRACE;

MONTPELIER     LGT SNOW  20  17  88 NW12G24   29.50R FOG     WCI   8
6HR MIN TEMP:  22; 6HR MAX TEMP:  29; 6HR PCP: TRACE;

MORRISVILLE    LGT SNOW  19  10  68 NW16      29.54R WCI   4
6HR MIN TEMP:  20; 6HR MAX TEMP:  32; 6HR PCP: TRACE;

ST. JOHNSBURY*   N/A     27  20  75 MISG      29.41R
6HR MIN TEMP:  27; 6HR MAX TEMP:  30; 6HR PCP:  0.02;

MIDDLEBURY*    LGT SNOW  27  20  73 N18G26    29.49R WCI  14
6HR MIN TEMP:  27; 6HR MAX TEMP:  31;

RUTLAND*       CLOUDY    32  23  69 W12G18    29.44R
6HR MIN TEMP:  30; 6HR MAX TEMP:  32;

SPRINGFIELD    PTSUNNY   33  22  63 W13G26    29.43R
6HR MIN TEMP:  30; 6HR MAX TEMP:  34;

HIGHGATE*      PTSUNNY   15   4  64 NW7G23    29.59R
6HR MIN TEMP:  15; 6HR MAX TEMP:  29;

NEWPORT*       LGT SNOW  17  14  85 NW20G26   29.45R WCI   1
6HR MIN TEMP:  17; 6HR MAX TEMP:  28;

BENNINGTON     CLOUDY    32  19  58 W15G21    29.50R
6HR MIN TEMP:  29; 6HR MAX TEMP:  33; 6HR PCP: TRACE;


_____LAKE CHAMPLAIN_____


CITY           SKY/WX    TMP DP  RH WIND       PRES   REMARKS

$$

NYZ007-026>031-035-052-083-251300-
_____NORTHERN NEW YORK_____


CITY           SKY/WX    TMP DP  RH WIND       PRES   REMARKS
PLATTSBURGH    PTSUNNY   19   8  62 NW17G26   29.60R WCI   4
6HR MIN TEMP:  19; 6HR MAX TEMP:  32; 6HR PCP: TRACE;

SARANAC LAKE   LGT SNOW   9   4  80 NW9G18    29.52R
6HR MIN TEMP:   9; 6HR MAX TEMP:  27; 6HR PCP:  0.03;

MASSENA        SUNNY      7  -2  66 NW18G26   29.74R WCI -12
6HR MIN TEMP:   7; 6HR MAX TEMP:  31; 6HR PCP: TRACE;

OGDENSBURG*    SUNNY      9   0  66 NW12      29.76R WCI  -6
POTSDAM*       MOSUNNY    7   1  78 NW14G20   29.73R WCI -10
WATERTOWN      SUNNY     13   3  64 N9        29.77R
6HR MIN TEMP:  13; 6HR MAX TEMP:  34; 6HR PCP: TRACE;

FT DRUM        MOSUNNY    8   1  71 N9        29.73R
6HR MIN TEMP:   8; 6HR MAX TEMP:  31; 6HR PCP: TRACE;

ALBANY         PTSUNNY   32  18  56 W22G41    29.59R
6HR MIN TEMP:  32; 6HR MAX TEMP:  36; 6HR PCP: TRACE;

GLENS FALLS    CLOUDY    34  22  61 SW6       29.50R
6HR MIN TEMP:  31; 6HR MAX TEMP:  34; 6HR PCP: TRACE;


$$
NHZ002-005-011-251300-
_____NEW HAMPSHIRE_____


CITY           SKY/WX    TMP DP  RH WIND       PRES   REMARKS
LEBANON        CLOUDY    33  24  69 SW9       29.40R
6HR MIN TEMP:  30; 6HR MAX TEMP:  34;

KEENE          PTSUNNY   32  27  80 SW7       29.45R
6HR MIN TEMP:  28; 6HR MAX TEMP:  34;

PLYMOUTH       CLOUDY    32  29  87 W3        29.38R
6HR MIN TEMP:  31; 6HR MAX TEMP:  33;

WHITEFIELD     FLURRIES  29  22  75 W18G28    29.36R WCI  16
6HR MIN TEMP:  27; 6HR MAX TEMP:  29; 6HR PCP: TRACE;


$$

_____REGIONAL QUEBEC LOCATIONS_____


CITY           SKY/WX    TMP DP  RH WIND       PRES   REMARKS
MONTREAL       MOSUNNY    7  -4  61 W15       29.65R WCI -11
QUEBEC CITY    MOSUNNY    9   0  66 W16       29.41R WCI  -9
SHERBROOKE     FLURRIES  14   7  73 NW23G29   29.44R WCI  -5

_____REGIONAL ONTARIO LOCATIONS_____


CITY           SKY/WX    TMP DP  RH WIND       PRES   REMARKS
OTTAWA         MOSUNNY    3  -4  72 NW21G26   29.74R WCI -18

______KEY______
VSB  - VISIBILITY IN MILES
WCI  - WIND CHILL INDEX
HX   - HEAT INDEX
$$
NNNN



USA.gov is the U.S. government's official web portal to all federal, state and local government web resources and services.